User: anonymous   Login
Location: Unspecified
(0.0000°N, 0.0000°E)
Time: 15:40:19
(UTC+00:00)
Language:

SOHLA-1 (MAIDO-1) - Orbit

View from above orbital plane
View from above orbital plane
View from above satellite
View from above satellite

Ground track
Ground track

The orbit data is extracted from the following two-line orbital elements,

1 33496U 09002E   17229.05633573  .00000027  00000-0  12833-4 0  9999
2 33496  98.3222  20.1505 0006619 162.1042 334.3456 14.71700946459638
Epoch (UTC): 17 August 2017 01:21:07
Eccentricity: 0.0006619
inclination: 98.3222°
perigee height: 651 km
apogee height: 660 km
right ascension of ascending node: 20.1505°
argument of perigee: 162.1042°
revolutions per day: 14.71700946
mean anomaly at epoch: 334.3456°
orbit number at epoch: 45963

The dashed part of the orbit path shows where the satellite is in the earth's shadow,  

DLR